owner,sensor,date,latitude,longitude,air_temperature,qcFlag 
DISL,ioos:station:DISL:DISL:1,2019-06-01T00:40:00Z,30.2513,-88.0778,29.44,11111222 
DISL,ioos:station:DISL:DISL:1,2019-06-01T02:10:00Z,30.2513,-88.0778,29.42,11111222 
DISL,ioos:station:DISL:DISL:1,2019-06-01T02:40:00Z,30.2513,-88.0778,29.39,11111222 
DISL,ioos:station:DISL:DISL:1,2019-06-01T03:40:00Z,30.2513,-88.0778,29.32,11111222 
DISL,ioos:station:DISL:DISL:1,2019-06-01T05:10:00Z,30.2513,-88.0778,29.05,11111222 
DISL,ioos:station:DISL:DISL:1,2019-06-01T06:10:00Z,30.2513,-88.0778,28.92,11111222 
DISL,ioos:station:DISL:DISL:1,2019-06-01T07:10:00Z,30.2513,-88.0778,28.65,11111222 
DISL,ioos:station:DISL:DISL:1,2019-06-01T08:10:00Z,30.2513,-88.0778,26.08,11111222 
DISL,ioos:station:DISL:DISL:1,2019-06-01T09:10:00Z,30.2513,-88.0778,26.5,11111222 
DISL,ioos:station:DISL:DISL:1,2019-06-01T10:10:00Z,30.2513,-88.0778,26.04,11111222 
DISL,ioos:station:DISL:DISL:1,2019-06-01T11:10:00Z,30.2513,-88.0778,26.59,11111222 
DISL,ioos:station:DISL:DISL:1,2019-06-01T12:10:00Z,30.2513,-88.0778,27.79,11111222 
DISL,ioos:station:DISL:DISL:1,2019-06-01T13:10:00Z,30.2513,-88.0778,28.22,11111222 
DISL,ioos:station:DISL:DISL:1,2019-06-01T14:10:00Z,30.2513,-88.0778,27.99,11111222 
DISL,ioos:station:DISL:DISL:1,2019-06-01T15:10:00Z,30.2513,-88.0778,28.49,11111222 
DISL,ioos:station:DISL:DISL:1,2019-06-01T16:10:00Z,30.2513,-88.0778,29.4,11111222 
DISL,ioos:station:DISL:DISL:1,2019-06-01T17:10:00Z,30.2513,-88.0778,29.91,11111222 
DISL,ioos:station:DISL:DISL:1,2019-06-01T18:10:00Z,30.2513,-88.0778,30.74,11111222 
DISL,ioos:station:DISL:DISL:1,2019-06-01T19:10:00Z,30.2513,-88.0778,28.58,11111222 
DISL,ioos:station:DISL:DISL:1,2019-06-01T20:10:00Z,30.2513,-88.0778,29.03,11111222 
DISL,ioos:station:DISL:DISL:1,2019-06-01T21:10:00Z,30.2513,-88.0778,27.61,11111222 
DISL,ioos:station:DISL:DISL:1,2019-06-01T22:10:00Z,30.2513,-88.0778,28.71,11111222 
DISL,ioos:station:DISL:DISL:1,2019-06-01T23:10:00Z,30.2513,-88.0778,28.78,11111222 
DISL,ioos:station:DISL:DISL:1,2019-06-02T00:10:00Z,30.2513,-88.0778,28.83,11111222 
DISL,ioos:station:DISL:DISL:1,2019-06-02T01:10:00Z,30.2513,-88.0778,28.43,11111222 
DISL,ioos:station:DISL:DISL:1,2019-06-02T02:10:00Z,30.2513,-88.0778,27.66,11111222 
DISL,ioos:station:DISL:DISL:1,2019-06-02T03:10:00Z,30.2513,-88.0778,27.66,11111222 
DISL,ioos:station:DISL:DISL:1,2019-06-02T04:10:00Z,30.2513,-88.0778,27.87,11111222 
DISL,ioos:station:DISL:DISL:1,2019-06-02T05:10:00Z,30.2513,-88.0778,27.45,11111222 
DISL,ioos:station:DISL:DISL:1,2019-06-02T06:10:00Z,30.2513,-88.0778,27.34,11111222 
DISL,ioos:station:DISL:DISL:1,2019-06-02T07:10:00Z,30.2513,-88.0778,27.13,11111222 
DISL,ioos:station:DISL:DISL:1,2019-06-02T08:10:00Z,30.2513,-88.0778,27.37,11111222 
DISL,ioos:station:DISL:DISL:1,2019-06-02T09:10:00Z,30.2513,-88.0778,27.44,11111222 
DISL,ioos:station:DISL:DISL:1,2019-06-02T10:10:00Z,30.2513,-88.0778,27.48,11111222 
DISL,ioos:station:DISL:DISL:1,2019-06-02T11:10:00Z,30.2513,-88.0778,27.96,11111222 
DISL,ioos:station:DISL:DISL:1,2019-06-02T12:10:00Z,30.2513,-88.0778,27.73,11111222 
DISL,ioos:station:DISL:DISL:1,2019-06-02T13:10:00Z,30.2513,-88.0778,27.98,11111222 
DISL,ioos:station:DISL:DISL:1,2019-06-02T14:10:00Z,30.2513,-88.0778,28.18,11111222 
DISL,ioos:station:DISL:DISL:1,2019-06-02T15:10:00Z,30.2513,-88.0778,28.37,11111222 
DISL,ioos:station:DISL:DISL:1,2019-06-02T16:10:00Z,30.2513,-88.0778,28.64,11111222 
DISL,ioos:station:DISL:DISL:1,2019-06-02T17:10:00Z,30.2513,-88.0778,29.62,11111222 
DISL,ioos:station:DISL:DISL:1,2019-06-02T18:10:00Z,30.2513,-88.0778,30.19,11111222 
DISL,ioos:station:DISL:DISL:1,2019-06-02T19:10:00Z,30.2513,-88.0778,30.53,11111222 
DISL,ioos:station:DISL:DISL:1,2019-06-02T20:10:00Z,30.2513,-88.0778,30.9,11111222 
DISL,ioos:station:DISL:DISL:1,2019-06-02T21:10:00Z,30.2513,-88.0778,30.99,11111222 
DISL,ioos:station:DISL:DISL:1,2019-06-02T22:10:00Z,30.2513,-88.0778,30.85,11111222 
DISL,ioos:station:DISL:DISL:1,2019-06-02T23:10:00Z,30.2513,-88.0778,30.93,11111222 
DISL,ioos:station:DISL:DISL:1,2019-06-03T00:10:00Z,30.2513,-88.0778,30.6,11111222 
DISL,ioos:station:DISL:DISL:1,2019-06-03T01:10:00Z,30.2513,-88.0778,29.68,11111222 
DISL,ioos:station:DISL:DISL:1,2019-06-03T02:10:00Z,30.2513,-88.0778,29.32,11111222 
DISL,ioos:station:DISL:DISL:1,2019-06-03T03:10:00Z,30.2513,-88.0778,29.36,11111222 
DISL,ioos:station:DISL:DISL:1,2019-06-03T04:10:00Z,30.2513,-88.0778,29.17,11111222 
DISL,ioos:station:DISL:DISL:1,2019-06-03T05:10:00Z,30.2513,-88.0778,29.1,11111222 
DISL,ioos:station:DISL:DISL:1,2019-06-03T06:10:00Z,30.2513,-88.0778,28.89,11111222 
DISL,ioos:station:DISL:DISL:1,2019-06-03T07:10:00Z,30.2513,-88.0778,28.82,11111222 
DISL,ioos:station:DISL:DISL:1,2019-06-03T08:10:00Z,30.2513,-88.0778,28.96,11111222 
DISL,ioos:station:DISL:DISL:1,2019-06-03T09:10:00Z,30.2513,-88.0778,28.96,11111222 
DISL,ioos:station:DISL:DISL:1,2019-06-03T10:10:00Z,30.2513,-88.0778,28.14,11111222 
DISL,ioos:station:DISL:DISL:1,2019-06-03T11:10:00Z,30.2513,-88.0778,28.17,11111222 
DISL,ioos:station:DISL:DISL:1,2019-06-03T12:10:00Z,30.2513,-88.0778,28.45,11111222 
DISL,ioos:station:DISL:DISL:1,2019-06-03T13:10:00Z,30.2513,-88.0778,28.73,11111222 
DISL,ioos:station:DISL:DISL:1,2019-06-03T14:10:00Z,30.2513,-88.0778,28.9,11111222 
DISL,ioos:station:DISL:DISL:1,2019-06-03T15:10:00Z,30.2513,-88.0778,29.12,11111222 
DISL,ioos:station:DISL:DISL:1,2019-06-03T16:10:00Z,30.2513,-88.0778,29.51,11111222 
DISL,ioos:station:DISL:DISL:1,2019-06-03T17:10:00Z,30.2513,-88.0778,30.05,11111222 
DISL,ioos:station:DISL:DISL:1,2019-06-03T18:10:00Z,30.2513,-88.0778,30.52,11111222 
DISL,ioos:station:DISL:DISL:1,2019-06-03T19:10:00Z,30.2513,-88.0778,31.77,11111222 
DISL,ioos:station:DISL:DISL:1,2019-06-03T20:10:00Z,30.2513,-88.0778,32.18,11111222 
DISL,ioos:station:DISL:DISL:1,2019-06-03T21:10:00Z,30.2513,-88.0778,31.7,11111222 
DISL,ioos:station:DISL:DISL:1,2019-06-03T22:10:00Z,30.2513,-88.0778,31.98,11111222 
DISL,ioos:station:DISL:DISL:1,2019-06-03T23:10:00Z,30.2513,-88.0778,31.61,11111222 
DISL,ioos:station:DISL:DISL:1,2019-06-04T00:10:00Z,30.2513,-88.0778,31.15,11111222 
DISL,ioos:station:DISL:DISL:1,2019-06-04T00:40:00Z,30.2513,-88.0778,30.48,11111222 
DISL,ioos:station:DISL:DISL:1,2019-06-04T02:10:00Z,30.2513,-88.0778,30.2,11111222 
DISL,ioos:station:DISL:DISL:1,2019-06-04T03:10:00Z,30.2513,-88.0778,30.07,11111222 
DISL,ioos:station:DISL:DISL:1,2019-06-04T04:10:00Z,30.2513,-88.0778,29.93,11111222 
DISL,ioos:station:DISL:DISL:1,2019-06-04T05:10:00Z,30.2513,-88.0778,29.63,11111222 
DISL,ioos:station:DISL:DISL:1,2019-06-04T06:10:00Z,30.2513,-88.0778,29.5,11111222 
DISL,ioos:station:DISL:DISL:1,2019-06-04T07:10:00Z,30.2513,-88.0778,29.17,11111222 
DISL,ioos:station:DISL:DISL:1,2019-06-04T08:10:00Z,30.2513,-88.0778,28.89,11111222 
DISL,ioos:station:DISL:DISL:1,2019-06-04T09:10:00Z,30.2513,-88.0778,28.72,11111222 
DISL,ioos:station:DISL:DISL:1,2019-06-04T10:10:00Z,30.2513,-88.0778,28.72,11111222 
DISL,ioos:station:DISL:DISL:1,2019-06-04T11:10:00Z,30.2513,-88.0778,28.41,11111222 
DISL,ioos:station:DISL:DISL:1,2019-06-04T12:10:00Z,30.2513,-88.0778,28.34,11111222 
DISL,ioos:station:DISL:DISL:1,2019-06-04T13:10:00Z,30.2513,-88.0778,28.66,11111222 
DISL,ioos:station:DISL:DISL:1,2019-06-04T14:10:00Z,30.2513,-88.0778,28.95,11111222 
DISL,ioos:station:DISL:DISL:1,2019-06-04T15:10:00Z,30.2513,-88.0778,29.15,11111222 
DISL,ioos:station:DISL:DISL:1,2019-06-04T16:10:00Z,30.2513,-88.0778,29.54,11111222 
DISL,ioos:station:DISL:DISL:1,2019-06-04T17:10:00Z,30.2513,-88.0778,30.74,11111222 
DISL,ioos:station:DISL:DISL:1,2019-06-04T18:10:00Z,30.2513,-88.0778,31.35,11111222 
DISL,ioos:station:DISL:DISL:1,2019-06-04T19:10:00Z,30.2513,-88.0778,31.81,11111222 
DISL,ioos:station:DISL:DISL:1,2019-06-04T20:10:00Z,30.2513,-88.0778,31.4,11111222 
DISL,ioos:station:DISL:DISL:1,2019-06-04T21:10:00Z,30.2513,-88.0778,31.77,11111222 
DISL,ioos:station:DISL:DISL:1,2019-06-04T22:10:00Z,30.2513,-88.0778,31.16,11111222 
DISL,ioos:station:DISL:DISL:1,2019-06-04T23:10:00Z,30.2513,-88.0778,30.91,11111222 
DISL,ioos:station:DISL:DISL:1,2019-06-04T23:40:00Z,30.2513,-88.0778,30.5,11111222 
DISL,ioos:station:DISL:DISL:1,2019-06-05T00:40:00Z,30.2513,-88.0778,29.36,11111222 
DISL,ioos:station:DISL:DISL:1,2019-06-05T02:10:00Z,30.2513,-88.0778,29.06,11111222 
DISL,ioos:station:DISL:DISL:1,2019-06-05T03:10:00Z,30.2513,-88.0778,28.89,11111222 
DISL,ioos:station:DISL:DISL:1,2019-06-05T04:10:00Z,30.2513,-88.0778,28.89,11111222 
DISL,ioos:station:DISL:DISL:1,2019-06-05T05:10:00Z,30.2513,-88.0778,28.79,11111222 
DISL,ioos:station:DISL:DISL:1,2019-06-05T06:10:00Z,30.2513,-88.0778,28.82,11111222 
DISL,ioos:station:DISL:DISL:1,2019-06-05T07:10:00Z,30.2513,-88.0778,28.76,11111222 
DISL,ioos:station:DISL:DISL:1,2019-06-05T08:10:00Z,30.2513,-88.0778,28.58,11111222 
DISL,ioos:station:DISL:DISL:1,2019-06-05T09:10:00Z,30.2513,-88.0778,28.41,11111222 
DISL,ioos:station:DISL:DISL:1,2019-06-05T10:10:00Z,30.2513,-88.0778,28.62,11111222 
DISL,ioos:station:DISL:DISL:1,2019-06-05T11:10:00Z,30.2513,-88.0778,28.86,11111222 
DISL,ioos:station:DISL:DISL:1,2019-06-05T12:10:00Z,30.2513,-88.0778,29.17,11111222 
DISL,ioos:station:DISL:DISL:1,2019-06-05T13:10:00Z,30.2513,-88.0778,29.9,11111222 
DISL,ioos:station:DISL:DISL:1,2019-06-05T14:10:00Z,30.2513,-88.0778,29.7,11111222 
DISL,ioos:station:DISL:DISL:1,2019-06-05T15:10:00Z,30.2513,-88.0778,29.67,11111222 
DISL,ioos:station:DISL:DISL:1,2019-06-05T16:10:00Z,30.2513,-88.0778,30.28,11111222 
DISL,ioos:station:DISL:DISL:1,2019-06-05T17:10:00Z,30.2513,-88.0778,30.21,11111222 
DISL,ioos:station:DISL:DISL:1,2019-06-05T18:10:00Z,30.2513,-88.0778,26.35,11111222 
DISL,ioos:station:DISL:DISL:1,2019-06-05T19:10:00Z,30.2513,-88.0778,26.43,11111222 
DISL,ioos:station:DISL:DISL:1,2019-06-05T20:10:00Z,30.2513,-88.0778,24.7,11111222 
DISL,ioos:station:DISL:DISL:1,2019-06-05T21:10:00Z,30.2513,-88.0778,26.59,11111222 
DISL,ioos:station:DISL:DISL:1,2019-06-05T22:10:00Z,30.2513,-88.0778,24.0,11111222 
DISL,ioos:station:DISL:DISL:1,2019-06-05T23:10:00Z,30.2513,-88.0778,25.24,11111222 
DISL,ioos:station:DISL:DISL:1,2019-06-06T00:10:00Z,30.2513,-88.0778,25.51,11111222 
DISL,ioos:station:DISL:DISL:1,2019-06-06T00:40:00Z,30.2513,-88.0778,25.44,11111222 
DISL,ioos:station:DISL:DISL:1,2019-06-06T02:10:00Z,30.2513,-88.0778,26.59,11111222 
DISL,ioos:station:DISL:DISL:1,2019-06-06T02:40:00Z,30.2513,-88.0778,26.66,11111222 
DISL,ioos:station:DISL:DISL:1,2019-06-06T03:40:00Z,30.2513,-88.0778,26.93,11111222 
DISL,ioos:station:DISL:DISL:1,2019-06-06T04:40:00Z,30.2513,-88.0778,27.75,11111222 
DISL,ioos:station:DISL:DISL:1,2019-06-06T05:40:00Z,30.2513,-88.0778,27.45,11111222 
DISL,ioos:station:DISL:DISL:1,2019-06-06T07:10:00Z,30.2513,-88.0778,26.64,11111222 
DISL,ioos:station:DISL:DISL:1,2019-06-06T07:40:00Z,30.2513,-88.0778,26.09,11111222 
DISL,ioos:station:DISL:DISL:1,2019-06-06T09:10:00Z,30.2513,-88.0778,22.63,11111222 
DISL,ioos:station:DISL:DISL:1,2019-06-06T09:40:00Z,30.2513,-88.0778,22.64,11111222 
DISL,ioos:station:DISL:DISL:1,2019-06-06T11:10:00Z,30.2513,-88.0778,24.12,11111222 
DISL,ioos:station:DISL:DISL:1,2019-06-06T12:10:00Z,30.2513,-88.0778,24.26,11111222 
DISL,ioos:station:DISL:DISL:1,2019-06-06T13:10:00Z,30.2513,-88.0778,24.76,11111222 
DISL,ioos:station:DISL:DISL:1,2019-06-06T14:10:00Z,30.2513,-88.0778,25.58,11111222 
DISL,ioos:station:DISL:DISL:1,2019-06-06T15:10:00Z,30.2513,-88.0778,26.11,11111222 
DISL,ioos:station:DISL:DISL:1,2019-06-06T16:10:00Z,30.2513,-88.0778,26.66,11111222 
DISL,ioos:station:DISL:DISL:1,2019-06-06T17:10:00Z,30.2513,-88.0778,28.5,11111222 
DISL,ioos:station:DISL:DISL:1,2019-06-06T18:10:00Z,30.2513,-88.0778,28.28,11111222 
DISL,ioos:station:DISL:DISL:1,2019-06-06T19:10:00Z,30.2513,-88.0778,28.59,11111222 
DISL,ioos:station:DISL:DISL:1,2019-06-06T20:10:00Z,30.2513,-88.0778,29.12,11111222 
DISL,ioos:station:DISL:DISL:1,2019-06-06T21:10:00Z,30.2513,-88.0778,28.77,11111222 
DISL,ioos:station:DISL:DISL:1,2019-06-06T22:10:00Z,30.2513,-88.0778,27.42,11111222 
DISL,ioos:station:DISL:DISL:1,2019-06-06T23:10:00Z,30.2513,-88.0778,28.04,11111222 
DISL,ioos:station:DISL:DISL:1,2019-06-06T23:40:00Z,30.2513,-88.0778,27.68,11111222 
DISL,ioos:station:DISL:DISL:1,2019-06-07T00:40:00Z,30.2513,-88.0778,27.93,11111222 
DISL,ioos:station:DISL:DISL:1,2019-06-07T01:40:00Z,30.2513,-88.0778,27.66,11111222 
DISL,ioos:station:DISL:DISL:1,2019-06-07T02:40:00Z,30.2513,-88.0778,27.45,11111222 
DISL,ioos:station:DISL:DISL:1,2019-06-07T03:40:00Z,30.2513,-88.0778,27.66,11111222 
DISL,ioos:station:DISL:DISL:1,2019-06-07T04:40:00Z,30.2513,-88.0778,27.56,11111222 
DISL,ioos:station:DISL:DISL:1,2019-06-07T05:40:00Z,30.2513,-88.0778,27.42,11111222 
DISL,ioos:station:DISL:DISL:1,2019-06-07T06:40:00Z,30.2513,-88.0778,27.28,11111222 
DISL,ioos:station:DISL:DISL:1,2019-06-07T07:40:00Z,30.2513,-88.0778,27.39,11111222 
DISL,ioos:station:DISL:DISL:1,2019-06-07T09:10:00Z,30.2513,-88.0778,27.32,11111222 
DISL,ioos:station:DISL:DISL:1,2019-06-07T09:40:00Z,30.2513,-88.0778,27.39,11111222 
DISL,ioos:station:DISL:DISL:1,2019-06-07T11:10:00Z,30.2513,-88.0778,27.39,11111222 
DISL,ioos:station:DISL:DISL:1,2019-06-07T12:10:00Z,30.2513,-88.0778,27.8,11111222 
DISL,ioos:station:DISL:DISL:1,2019-06-07T13:10:00Z,30.2513,-88.0778,28.6,11111222 
DISL,ioos:station:DISL:DISL:1,2019-06-07T14:10:00Z,30.2513,-88.0778,28.82,11111222 
DISL,ioos:station:DISL:DISL:1,2019-06-07T15:10:00Z,30.2513,-88.0778,29.08,11111222 
DISL,ioos:station:DISL:DISL:1,2019-06-07T16:10:00Z,30.2513,-88.0778,29.02,11111222 
DISL,ioos:station:DISL:DISL:1,2019-06-07T17:10:00Z,30.2513,-88.0778,29.36,11111222 
DISL,ioos:station:DISL:DISL:1,2019-06-07T18:10:00Z,30.2513,-88.0778,28.54,11111222 
DISL,ioos:station:DISL:DISL:1,2019-06-07T19:10:00Z,30.2513,-88.0778,25.35,11111222 
DISL,ioos:station:DISL:DISL:1,2019-06-07T20:10:00Z,30.2513,-88.0778,28.04,11111222 
DISL,ioos:station:DISL:DISL:1,2019-06-07T21:10:00Z,30.2513,-88.0778,28.82,11111222 
DISL,ioos:station:DISL:DISL:1,2019-06-07T22:10:00Z,30.2513,-88.0778,28.54,11111222 
DISL,ioos:station:DISL:DISL:1,2019-06-07T23:10:00Z,30.2513,-88.0778,28.23,11111222 
DISL,ioos:station:DISL:DISL:1,2019-06-07T23:40:00Z,30.2513,-88.0778,27.97,11111222 
DISL,ioos:station:DISL:DISL:1,2019-06-08T00:40:00Z,30.2513,-88.0778,27.79,11111222 
DISL,ioos:station:DISL:DISL:1,2019-06-08T01:40:00Z,30.2513,-88.0778,26.63,11111222 
DISL,ioos:station:DISL:DISL:1,2019-06-08T02:40:00Z,30.2513,-88.0778,26.93,11111222 
DISL,ioos:station:DISL:DISL:1,2019-06-08T03:40:00Z,30.2513,-88.0778,27.17,11111222 
DISL,ioos:station:DISL:DISL:1,2019-06-08T04:40:00Z,30.2513,-88.0778,27.55,11111222 
DISL,ioos:station:DISL:DISL:1,2019-06-08T05:40:00Z,30.2513,-88.0778,27.39,11111222 
DISL,ioos:station:DISL:DISL:1,2019-06-08T07:10:00Z,30.2513,-88.0778,27.11,11111222 
DISL,ioos:station:DISL:DISL:1,2019-06-08T08:10:00Z,30.2513,-88.0778,24.7,11111222 
DISL,ioos:station:DISL:DISL:1,2019-06-08T09:10:00Z,30.2513,-88.0778,25.14,11111222 
DISL,ioos:station:DISL:DISL:1,2019-06-08T10:10:00Z,30.2513,-88.0778,25.41,11111222 
DISL,ioos:station:DISL:DISL:1,2019-06-08T11:10:00Z,30.2513,-88.0778,25.77,11111222 
DISL,ioos:station:DISL:DISL:1,2019-06-08T12:10:00Z,30.2513,-88.0778,27.08,11111222 
DISL,ioos:station:DISL:DISL:1,2019-06-08T13:10:00Z,30.2513,-88.0778,26.87,11111222 
DISL,ioos:station:DISL:DISL:1,2019-06-08T14:10:00Z,30.2513,-88.0778,26.95,11111222 
DISL,ioos:station:DISL:DISL:1,2019-06-08T15:10:00Z,30.2513,-88.0778,25.93,11111222 
DISL,ioos:station:DISL:DISL:1,2019-06-08T16:10:00Z,30.2513,-88.0778,27.64,11111222 
DISL,ioos:station:DISL:DISL:1,2019-06-08T17:10:00Z,30.2513,-88.0778,27.77,11111222 
DISL,ioos:station:DISL:DISL:1,2019-06-08T18:10:00Z,30.2513,-88.0778,29.05,11111222 
DISL,ioos:station:DISL:DISL:1,2019-06-08T19:10:00Z,30.2513,-88.0778,28.54,11111222 
DISL,ioos:station:DISL:DISL:1,2019-06-09T00:40:00Z,30.2513,-88.0778,27.81,11111222 
DISL,ioos:station:DISL:DISL:1,2019-06-09T01:40:00Z,30.2513,-88.0778,27.69,11111222 
DISL,ioos:station:DISL:DISL:1,2019-06-09T02:40:00Z,30.2513,-88.0778,27.97,11111222 
DISL,ioos:station:DISL:DISL:1,2019-06-09T03:40:00Z,30.2513,-88.0778,27.39,11111222 
DISL,ioos:station:DISL:DISL:1,2019-06-09T04:40:00Z,30.2513,-88.0778,27.2,11111222 
DISL,ioos:station:DISL:DISL:1,2019-06-09T05:40:00Z,30.2513,-88.0778,27.24,11111222 
DISL,ioos:station:DISL:DISL:1,2019-06-09T06:40:00Z,30.2513,-88.0778,27.1,11111222 
DISL,ioos:station:DISL:DISL:1,2019-06-09T07:40:00Z,30.2513,-88.0778,27.27,11111222 
DISL,ioos:station:DISL:DISL:1,2019-06-09T08:40:00Z,30.2513,-88.0778,27.13,11111222 
DISL,ioos:station:DISL:DISL:1,2019-06-09T09:40:00Z,30.2513,-88.0778,27.17,11111222 
DISL,ioos:station:DISL:DISL:1,2019-06-09T11:09:00Z,30.2513,-88.0778,26.24,11111222 
DISL,ioos:station:DISL:DISL:1,2019-06-09T12:09:00Z,30.2513,-88.0778,26.46,11111222 
DISL,ioos:station:DISL:DISL:1,2019-06-09T13:09:00Z,30.2513,-88.0778,26.82,11111222 
DISL,ioos:station:DISL:DISL:1,2019-06-09T14:09:00Z,30.2513,-88.0778,26.61,11111222 
DISL,ioos:station:DISL:DISL:1,2019-06-09T15:09:00Z,30.2513,-88.0778,26.99,11111222 
DISL,ioos:station:DISL:DISL:1,2019-06-09T16:09:00Z,30.2513,-88.0778,27.55,11111222 
DISL,ioos:station:DISL:DISL:1,2019-06-09T17:09:00Z,30.2513,-88.0778,28.95,11111222 
DISL,ioos:station:DISL:DISL:1,2019-06-09T18:09:00Z,30.2513,-88.0778,29.26,11111222 
DISL,ioos:station:DISL:DISL:1,2019-06-09T19:09:00Z,30.2513,-88.0778,29.25,11111222 
DISL,ioos:station:DISL:DISL:1,2019-06-09T20:09:00Z,30.2513,-88.0778,29.47,11111222 
DISL,ioos:station:DISL:DISL:1,2019-06-09T21:09:00Z,30.2513,-88.0778,29.92,11111222 
DISL,ioos:station:DISL:DISL:1,2019-06-09T22:09:00Z,30.2513,-88.0778,30.19,11111222 
DISL,ioos:station:DISL:DISL:1,2019-06-09T23:09:00Z,30.2513,-88.0778,30.19,11111222 
DISL,ioos:station:DISL:DISL:1,2019-06-10T00:09:00Z,30.2513,-88.0778,29.97,11111222 
DISL,ioos:station:DISL:DISL:1,2019-06-10T01:09:00Z,30.2513,-88.0778,29.38,11111222 
DISL,ioos:station:DISL:DISL:1,2019-06-10T02:09:00Z,30.2513,-88.0778,28.94,11111222 
DISL,ioos:station:DISL:DISL:1,2019-06-10T03:09:00Z,30.2513,-88.0778,28.38,11111222 
DISL,ioos:station:DISL:DISL:1,2019-06-10T04:09:00Z,30.2513,-88.0778,28.04,11111222 
DISL,ioos:station:DISL:DISL:1,2019-06-10T05:09:00Z,30.2513,-88.0778,27.63,11111222 
DISL,ioos:station:DISL:DISL:1,2019-06-10T06:09:00Z,30.2513,-88.0778,27.28,11111222 
DISL,ioos:station:DISL:DISL:1,2019-06-10T07:09:00Z,30.2513,-88.0778,26.86,11111222 
DISL,ioos:station:DISL:DISL:1,2019-06-10T08:09:00Z,30.2513,-88.0778,26.48,11111222 
DISL,ioos:station:DISL:DISL:1,2019-06-10T09:09:00Z,30.2513,-88.0778,26.45,11111222 
DISL,ioos:station:DISL:DISL:1,2019-06-10T10:09:00Z,30.2513,-88.0778,25.9,11111222 
DISL,ioos:station:DISL:DISL:1,2019-06-10T11:09:00Z,30.2513,-88.0778,25.63,11111222 
DISL,ioos:station:DISL:DISL:1,2019-06-10T12:09:00Z,30.2513,-88.0778,25.52,11111222 
DISL,ioos:station:DISL:DISL:1,2019-06-10T13:09:00Z,30.2513,-88.0778,25.62,11111222 
DISL,ioos:station:DISL:DISL:1,2019-06-10T14:09:00Z,30.2513,-88.0778,26.56,11111222 
DISL,ioos:station:DISL:DISL:1,2019-06-10T15:09:00Z,30.2513,-88.0778,26.96,11111222 
DISL,ioos:station:DISL:DISL:1,2019-06-10T16:09:00Z,30.2513,-88.0778,27.29,11111222 
DISL,ioos:station:DISL:DISL:1,2019-06-10T17:09:00Z,30.2513,-88.0778,27.7,11111222 
DISL,ioos:station:DISL:DISL:1,2019-06-10T18:09:00Z,30.2513,-88.0778,28.62,11111222 
DISL,ioos:station:DISL:DISL:1,2019-06-10T19:09:00Z,30.2513,-88.0778,29.75,11111222 
DISL,ioos:station:DISL:DISL:1,2019-06-10T20:09:00Z,30.2513,-88.0778,29.06,11111222 
DISL,ioos:station:DISL:DISL:1,2019-06-10T21:09:00Z,30.2513,-88.0778,29.35,11111222 
DISL,ioos:station:DISL:DISL:1,2019-06-10T22:09:00Z,30.2513,-88.0778,28.88,11111222 
DISL,ioos:station:DISL:DISL:1,2019-06-10T23:09:00Z,30.2513,-88.0778,28.87,11111222 
DISL,ioos:station:DISL:DISL:1,2019-06-11T00:09:00Z,30.2513,-88.0778,28.2,11111222 
DISL,ioos:station:DISL:DISL:1,2019-06-11T01:09:00Z,30.2513,-88.0778,28.0,11111222 
DISL,ioos:station:DISL:DISL:1,2019-06-11T02:09:00Z,30.2513,-88.0778,28.1,11111222 
DISL,ioos:station:DISL:DISL:1,2019-06-11T03:09:00Z,30.2513,-88.0778,29.2,11111222 
DISL,ioos:station:DISL:DISL:1,2019-06-11T04:09:00Z,30.2513,-88.0778,28.62,11111222 
DISL,ioos:station:DISL:DISL:1,2019-06-11T05:09:00Z,30.2513,-88.0778,27.63,11111222 
DISL,ioos:station:DISL:DISL:1,2019-06-11T06:09:00Z,30.2513,-88.0778,27.73,11111222 
DISL,ioos:station:DISL:DISL:1,2019-06-11T07:09:00Z,30.2513,-88.0778,27.11,11111222 
DISL,ioos:station:DISL:DISL:1,2019-06-11T08:09:00Z,30.2513,-88.0778,26.64,11111222 
DISL,ioos:station:DISL:DISL:1,2019-06-11T09:09:00Z,30.2513,-88.0778,26.14,11111222 
DISL,ioos:station:DISL:DISL:1,2019-06-11T10:09:00Z,30.2513,-88.0778,25.56,11111222 
DISL,ioos:station:DISL:DISL:1,2019-06-11T11:09:00Z,30.2513,-88.0778,25.46,11111222 
DISL,ioos:station:DISL:DISL:1,2019-06-11T12:09:00Z,30.2513,-88.0778,25.15,11111222 
DISL,ioos:station:DISL:DISL:1,2019-06-11T13:09:00Z,30.2513,-88.0778,24.81,11111222 
DISL,ioos:station:DISL:DISL:1,2019-06-11T14:09:00Z,30.2513,-88.0778,24.53,11111222 
DISL,ioos:station:DISL:DISL:1,2019-06-11T15:09:00Z,30.2513,-88.0778,24.96,11111222 
DISL,ioos:station:DISL:DISL:1,2019-06-11T16:09:00Z,30.2513,-88.0778,25.74,11111222 
DISL,ioos:station:DISL:DISL:1,2019-06-11T17:09:00Z,30.2513,-88.0778,25.78,11111222 
DISL,ioos:station:DISL:DISL:1,2019-06-11T18:09:00Z,30.2513,-88.0778,26.49,11111222 
DISL,ioos:station:DISL:DISL:1,2019-06-11T21:09:00Z,30.2513,-88.0778,28.45,11111222 
DISL,ioos:station:DISL:DISL:1,2019-06-11T22:09:00Z,30.2513,-88.0778,28.53,11111222 
DISL,ioos:station:DISL:DISL:1,2019-06-11T23:09:00Z,30.2513,-88.0778,27.6,11111222 
DISL,ioos:station:DISL:DISL:1,2019-06-11T23:39:00Z,30.2513,-88.0778,27.67,11111222 
DISL,ioos:station:DISL:DISL:1,2019-06-12T01:09:00Z,30.2513,-88.0778,27.39,11111222 
DISL,ioos:station:DISL:DISL:1,2019-06-12T02:09:00Z,30.2513,-88.0778,28.07,11111222 
DISL,ioos:station:DISL:DISL:1,2019-06-12T03:09:00Z,30.2513,-88.0778,26.94,11111222 
DISL,ioos:station:DISL:DISL:1,2019-06-12T04:09:00Z,30.2513,-88.0778,26.03,11111222 
DISL,ioos:station:DISL:DISL:1,2019-06-12T05:09:00Z,30.2513,-88.0778,25.39,11111222 
DISL,ioos:station:DISL:DISL:1,2019-06-12T06:09:00Z,30.2513,-88.0778,25.25,11111222 
DISL,ioos:station:DISL:DISL:1,2019-06-12T07:09:00Z,30.2513,-88.0778,25.39,11111222 
DISL,ioos:station:DISL:DISL:1,2019-06-12T08:09:00Z,30.2513,-88.0778,25.42,11111222 
DISL,ioos:station:DISL:DISL:1,2019-06-12T09:09:00Z,30.2513,-88.0778,25.24,11111222 
DISL,ioos:station:DISL:DISL:1,2019-06-12T10:09:00Z,30.2513,-88.0778,24.04,11111222 
DISL,ioos:station:DISL:DISL:1,2019-06-12T11:09:00Z,30.2513,-88.0778,24.45,11111222 
DISL,ioos:station:DISL:DISL:1,2019-06-12T12:09:00Z,30.2513,-88.0778,24.92,11111222 
DISL,ioos:station:DISL:DISL:1,2019-06-12T13:09:00Z,30.2513,-88.0778,24.98,11111222 
DISL,ioos:station:DISL:DISL:1,2019-06-12T14:09:00Z,30.2513,-88.0778,25.26,11111222 
DISL,ioos:station:DISL:DISL:1,2019-06-12T15:09:00Z,30.2513,-88.0778,25.6,11111222 
DISL,ioos:station:DISL:DISL:1,2019-06-12T16:09:00Z,30.2513,-88.0778,26.23,11111222 
DISL,ioos:station:DISL:DISL:1,2019-06-12T17:09:00Z,30.2513,-88.0778,27.72,11111222 
DISL,ioos:station:DISL:DISL:1,2019-06-12T18:09:00Z,30.2513,-88.0778,28.2,11111222 
DISL,ioos:station:DISL:DISL:1,2019-06-12T19:09:00Z,30.2513,-88.0778,28.13,11111222 
DISL,ioos:station:DISL:DISL:1,2019-06-12T20:09:00Z,30.2513,-88.0778,27.82,11111222 
DISL,ioos:station:DISL:DISL:1,2019-06-12T21:09:00Z,30.2513,-88.0778,27.58,11111222 
DISL,ioos:station:DISL:DISL:1,2019-06-12T22:09:00Z,30.2513,-88.0778,28.37,11111222 
DISL,ioos:station:DISL:DISL:1,2019-06-12T23:09:00Z,30.2513,-88.0778,27.26,11111222 
DISL,ioos:station:DISL:DISL:1,2019-06-13T00:09:00Z,30.2513,-88.0778,26.97,11111222 
DISL,ioos:station:DISL:DISL:1,2019-06-13T01:09:00Z,30.2513,-88.0778,26.67,11111222 
DISL,ioos:station:DISL:DISL:1,2019-06-13T02:09:00Z,30.2513,-88.0778,26.59,11111222 
DISL,ioos:station:DISL:DISL:1,2019-06-13T03:09:00Z,30.2513,-88.0778,26.86,11111222 
DISL,ioos:station:DISL:DISL:1,2019-06-13T04:09:00Z,30.2513,-88.0778,27.17,11111222 